Location: Key Biscayne
(25.6930°N, 80.1630°W)
Time: 23:14:52
(UTC-04:00)

Vanguard 1 - Visible Passes

Search period start: 19 July 2018 00:00
Search period end: 29 July 2018 00:00
Orbit: 650 x 3833 km, 34.2° (Epoch: 19 July)

Date Brightness Start Highest point End Pass type
(mag) Time Alt. Az. Time Alt. Az. Time Alt. Az.
19 Jul 10.5 03:49:58 41° NNE 03:50:06 42° NNE 03:55:49 10° E visible
19 Jul 10.4 06:05:09 10° WNW 06:10:39 58° SSW 06:20:10 10° SE visible
19 Jul 11.3 20:59:13 10° SSW 21:08:43 33° SSE 21:13:49 13° E visible
19 Jul 11.3 23:22:28 10° WSW 23:26:37 31° WSW 23:26:37 31° WSW visible
20 Jul 10.0 04:10:21 49° NNW 04:11:08 55° NNE 04:17:26 10° E visible
20 Jul 10.8 21:19:47 10° SW 21:29:58 47° SSE 21:34:27 18° E visible
20 Jul 11.7 23:44:03 10° W 23:47:14 25° W 23:47:14 25° W visible
21 Jul 9.6 04:30:49 50° NW 04:32:07 78° NNE 04:38:56 10° ESE visible
21 Jul 10.4 21:40:46 10° SW 21:51:05 65° SSE 21:55:00 24° ENE visible
22 Jul 12.0 00:05:45 10° W 00:07:46 18° WNW 00:07:46 18° WNW visible
22 Jul 9.5 04:51:22 42° W 04:53:05 73° SSW 05:00:11 10° ESE visible
22 Jul 10.2 22:02:05 10° WSW 22:12:09 87° SSE 22:15:26 30° ENE visible
23 Jul 12.4 00:27:28 10° WNW 00:28:12 13° WNW 00:28:12 13° WNW visible
23 Jul 10.0 05:12:01 32° W 05:14:05 48° SSW 05:21:09 10° SE visible
23 Jul 10.3 22:23:41 10° WSW 22:33:11 72° NNW 22:35:46 36° NE visible
24 Jul 12.3 03:19:55 10° E 03:19:55 10° E 03:19:56 10° E visible
24 Jul 10.6 05:32:43 22° WSW 05:35:09 31° SSW 05:41:42 10° SSE visible
24 Jul 11.2 20:19:25 10° SW 20:32:50 56° SSE 20:40:04 10° ENE visible
24 Jul 10.6 22:45:29 10° W 22:54:14 56° NNW 22:55:59 42° NNE visible
25 Jul 12.0 03:40:40 13° ESE 03:40:40 13° ESE 03:41:13 10° ESE visible
25 Jul 11.1 05:53:28 14° WSW 05:56:19 20° SSW 06:01:42 10° SSE visible
25 Jul 11.0 20:40:37 10° SW 20:54:02 73° SSE 21:01:05 10° ENE visible
25 Jul 10.8 23:07:23 10° W 23:15:20 45° NNW 23:16:06 43° N visible
26 Jul 11.9 04:01:26 14° SE 04:01:26 14° SE 04:02:16 10° SE visible
26 Jul 11.6 06:15:05 10° SW 06:17:36 13° SSW 06:20:32 10° S visible
26 Jul 10.9 21:02:09 10° WSW 21:15:10 89° NNW 21:21:59 10° ENE visible
26 Jul 11.1 23:29:18 10° W 23:36:09 38° NNW 23:36:09 38° NNW visible
27 Jul 11.9 04:22:11 13° SE 04:22:11 13° SE 04:22:59 10° SE visible
27 Jul 11.0 21:23:57 10° WSW 21:36:17 72° NNW 21:42:51 10° ENE visible
27 Jul 11.5 23:51:08 10° WNW 23:56:07 31° NW 23:56:07 31° NW visible
28 Jul 12.0 04:42:55 11° SSE 04:42:55 11° SSE 04:43:14 10° SSE visible
28 Jul 11.1 21:45:58 10° W 21:57:26 59° NNW 22:03:19 12° ENE visible
